UAL444 KSFO-KSAN

Flight info

Callsign UAL444
Flight time 1h 10m
Altitude 37000
Route WESLA5 YYUNG DCT LAX COMIX2
Aircraft A319/M-SDE3FGHIRWY/LB1

Departure

Time 2026-05-07 03:09
Airport San Francisco International Airport (KSFO)

Arrival

Time 2026-05-07 04:20
Airport San Diego International Airport (KSAN)
Time Latitude Longitude Altitude Speed Heading
2026-05-07 02:36 37.62006 -122.38882 22 ft 0 kts 28°
2026-05-07 02:48 37.61992 -122.38891 22 ft 3 kts 26°
2026-05-07 02:49 37.61974 -122.38902 23 ft 3 kts 23°
2026-05-07 02:49 37.61955 -122.38911 22 ft 3 kts 18°
2026-05-07 02:49 37.61936 -122.38918 23 ft 3 kts
2026-05-07 02:49 37.61918 -122.38916 22 ft 3 kts 327°
2026-05-07 02:50 37.61911 -122.38909 22 ft 0 kts 298°
2026-05-07 02:50 37.61910 -122.38909 22 ft 0 kts 298°
2026-05-07 02:58 37.61915 -122.38920 24 ft 3 kts 298°
2026-05-07 02:58 37.61934 -122.38963 23 ft 8 kts 298°
2026-05-07 02:59 37.61968 -122.39043 22 ft 13 kts 298°
2026-05-07 02:59 37.62018 -122.39161 22 ft 17 kts 298°
2026-05-07 02:59 37.62098 -122.39192 22 ft 15 kts 30°
2026-05-07 02:59 37.62200 -122.39125 22 ft 17 kts 28°
2026-05-07 03:00 37.62254 -122.38993 22 ft 18 kts 74°
2026-05-07 03:00 37.62237 -122.38850 22 ft 18 kts 118°
2026-05-07 03:00 37.62175 -122.38703 22 ft 20 kts 118°
2026-05-07 03:00 37.62114 -122.38557 23 ft 18 kts 118°
2026-05-07 03:01 37.62054 -122.38415 24 ft 19 kts 117°
2026-05-07 03:01 37.61997 -122.38276 22 ft 16 kts 117°
2026-05-07 03:01 37.61942 -122.38144 22 ft 17 kts 117°
2026-05-07 03:01 37.61898 -122.38038 23 ft 13 kts 118°
2026-05-07 03:02 37.61851 -122.37927 22 ft 16 kts 118°
2026-05-07 03:02 37.61805 -122.37789 22 ft 18 kts 110°
2026-05-07 03:02 37.61757 -122.37629 22 ft 20 kts 111°
2026-05-07 03:02 37.61697 -122.37459 22 ft 21 kts 117°
2026-05-07 03:03 37.61632 -122.37300 22 ft 20 kts 118°
2026-05-07 03:03 37.61564 -122.37141 22 ft 21 kts 118°
2026-05-07 03:03 37.61495 -122.36979 23 ft 21 kts 120°
2026-05-07 03:03 37.61400 -122.36836 23 ft 22 kts 133°
2026-05-07 03:04 37.61319 -122.36670 22 ft 23 kts 117°
2026-05-07 03:04 37.61244 -122.36488 22 ft 24 kts 118°
2026-05-07 03:04 37.61165 -122.36301 22 ft 23 kts 118°
2026-05-07 03:04 37.61100 -122.36141 22 ft 12 kts 103°
2026-05-07 03:05 37.61146 -122.36077 23 ft 6 kts 27°
2026-05-07 03:05 37.61152 -122.36073 22 ft 0 kts 27°
2026-05-07 03:06 37.61159 -122.36068 22 ft 3 kts 27°
2026-05-07 03:06 37.61184 -122.36052 23 ft 5 kts 27°
2026-05-07 03:07 37.61224 -122.36027 22 ft 7 kts 25°
2026-05-07 03:07 37.61266 -122.36057 22 ft 9 kts 292°
2026-05-07 03:07 37.61273 -122.36077 22 ft 0 kts 294°
2026-05-07 03:08 37.61298 -122.36142 22 ft 28 kts 297°
2026-05-07 03:09 37.61487 -122.36595 23 ft 87 kts 297°
2026-05-07 03:09 37.61852 -122.37481 24 ft 139 kts 297°
2026-05-07 03:09 37.62339 -122.38632 439 ft 152 kts 296°
2026-05-07 03:09 37.62837 -122.39815 1121 ft 153 kts 298°
2026-05-07 03:10 37.63351 -122.41000 1816 ft 156 kts 299°
2026-05-07 03:10 37.63897 -122.42247 2210 ft 175 kts 298°
2026-05-07 03:10 37.64530 -122.43687 2541 ft 199 kts 298°
2026-05-07 03:10 37.65247 -122.45311 2948 ft 223 kts 299°
2026-05-07 03:11 37.66018 -122.47061 3736 ft 232 kts 300°
2026-05-07 03:11 37.66779 -122.48921 4500 ft 247 kts 292°
2026-05-07 03:11 37.66832 -122.51176 5057 ft 273 kts 254°
2026-05-07 03:11 37.65769 -122.53191 5850 ft 285 kts 219°
2026-05-07 03:12 37.63977 -122.54157 6783 ft 288 kts 186°
2026-05-07 03:12 37.62003 -122.53812 7690 ft 289 kts 159°
2026-05-07 03:12 37.60163 -122.52774 8617 ft 291 kts 153°
2026-05-07 03:12 37.58329 -122.51648 9521 ft 295 kts 152°
2026-05-07 03:13 37.56473 -122.50504 10327 ft 302 kts 152°
2026-05-07 03:13 37.54505 -122.49306 10645 ft 325 kts 155°
2026-05-07 03:13 37.52340 -122.48309 11207 ft 336 kts 162°
2026-05-07 03:13 37.50056 -122.47599 11959 ft 341 kts 172°
2026-05-07 03:14 37.47675 -122.47627 12730 ft 345 kts 186°
2026-05-07 03:14 37.45299 -122.48174 13526 ft 347 kts 189°
2026-05-07 03:14 37.40484 -122.49138 14914 ft 354 kts 187°
2026-05-07 03:15 37.38029 -122.49567 15524 ft 359 kts 186°
2026-05-07 03:15 37.35538 -122.49998 16148 ft 363 kts 186°
2026-05-07 03:15 37.33014 -122.50442 16747 ft 369 kts 187°
2026-05-07 03:15 37.30460 -122.50899 17383 ft 373 kts 187°
2026-05-07 03:16 37.27909 -122.51364 17981 ft 377 kts 187°
2026-05-07 03:16 37.25294 -122.51848 18602 ft 381 kts 187°
2026-05-07 03:16 37.22655 -122.52340 19134 ft 385 kts 187°
2026-05-07 03:16 37.19986 -122.52841 19692 ft 389 kts 188°
2026-05-07 03:17 37.17293 -122.53346 20231 ft 393 kts 188°
2026-05-07 03:17 37.14569 -122.53855 20766 ft 397 kts 188°
2026-05-07 03:17 37.11824 -122.54365 21325 ft 401 kts 188°
2026-05-07 03:17 37.09043 -122.54880 21852 ft 405 kts 188°
2026-05-07 03:18 37.06254 -122.55389 22408 ft 408 kts 188°
2026-05-07 03:18 37.03443 -122.55634 22921 ft 411 kts 178°
2026-05-07 03:18 37.00587 -122.55222 23457 ft 414 kts 167°
2026-05-07 03:18 36.97836 -122.54156 23948 ft 416 kts 156°
2026-05-07 03:19 36.95264 -122.52479 24370 ft 419 kts 147°
2026-05-07 03:19 36.92741 -122.50611 24787 ft 422 kts 148°
2026-05-07 03:19 36.90210 -122.48747 25246 ft 424 kts 148°
2026-05-07 03:19 36.87649 -122.46868 25675 ft 427 kts 148°
2026-05-07 03:20 36.85078 -122.44981 26098 ft 430 kts 148°
2026-05-07 03:20 36.82495 -122.43087 26542 ft 432 kts 148°
2026-05-07 03:20 36.79893 -122.41183 26944 ft 435 kts 148°
2026-05-07 03:20 36.77272 -122.39267 27356 ft 438 kts 148°
2026-05-07 03:21 36.74636 -122.37341 27766 ft 440 kts 148°
2026-05-07 03:21 36.72016 -122.35430 28133 ft 443 kts 148°
2026-05-07 03:21 36.69352 -122.33484 28569 ft 445 kts 148°
2026-05-07 03:21 36.66670 -122.31522 28990 ft 448 kts 148°
2026-05-07 03:22 36.63974 -122.29552 29386 ft 451 kts 148°
2026-05-07 03:22 36.61262 -122.27575 29804 ft 453 kts 148°
2026-05-07 03:22 36.58531 -122.25586 30192 ft 455 kts 148°
2026-05-07 03:22 36.55790 -122.23588 30525 ft 458 kts 148°
2026-05-07 03:23 36.53030 -122.21577 30855 ft 460 kts 148°
2026-05-07 03:23 36.50264 -122.19562 31163 ft 462 kts 148°
2026-05-07 03:23 36.47479 -122.17540 31469 ft 464 kts 148°
2026-05-07 03:23 36.44684 -122.15514 31770 ft 467 kts 148°
2026-05-07 03:24 36.41900 -122.13500 32049 ft 469 kts 148°
2026-05-07 03:24 36.39074 -122.11457 32356 ft 471 kts 148°
2026-05-07 03:24 36.36239 -122.09406 32707 ft 471 kts 148°
2026-05-07 03:24 36.33405 -122.07359 33155 ft 470 kts 148°
2026-05-07 03:25 36.30584 -122.05321 33592 ft 469 kts 148°
2026-05-07 03:25 36.27763 -122.03284 34029 ft 468 kts 148°
2026-05-07 03:25 36.24949 -122.01254 34426 ft 467 kts 148°
2026-05-07 03:25 36.22141 -121.99231 34802 ft 466 kts 148°
2026-05-07 03:26 36.19333 -121.97210 35166 ft 465 kts 148°
2026-05-07 03:26 36.16538 -121.95196 35519 ft 464 kts 148°
2026-05-07 03:26 36.13751 -121.93187 35861 ft 464 kts 148°
2026-05-07 03:26 36.10998 -121.91207 36198 ft 463 kts 148°
2026-05-07 03:27 36.08219 -121.89215 36523 ft 462 kts 148°
2026-05-07 03:27 36.05428 -121.87218 36851 ft 462 kts 148°
2026-05-07 03:27 36.02660 -121.85208 37098 ft 461 kts 145°
2026-05-07 03:28 35.98625 -121.81025 37146 ft 453 kts 130°
2026-05-07 03:28 35.94744 -121.74933 37150 ft 450 kts 125°
2026-05-07 03:29 35.90914 -121.68830 37144 ft 449 kts 125°
2026-05-07 03:29 35.87073 -121.62739 37137 ft 449 kts 125°
2026-05-07 03:30 35.83237 -121.56646 37134 ft 449 kts 125°
2026-05-07 03:30 35.79426 -121.50611 37132 ft 449 kts 125°
2026-05-07 03:31 35.75580 -121.44541 37141 ft 449 kts 125°
2026-05-07 03:31 35.71744 -121.38491 37129 ft 449 kts 125°
2026-05-07 03:32 35.67900 -121.32435 37123 ft 448 kts 125°
2026-05-07 03:32 35.64055 -121.26386 37127 ft 448 kts 125°
2026-05-07 03:33 35.60216 -121.20354 37132 ft 448 kts 125°
2026-05-07 03:33 35.56380 -121.14329 37119 ft 448 kts 125°
2026-05-07 03:34 35.52542 -121.08322 37121 ft 447 kts 125°
2026-05-07 03:34 35.48776 -121.02234 37125 ft 446 kts 122°
2026-05-07 03:35 35.45223 -120.96009 37129 ft 445 kts 121°
2026-05-07 03:35 35.41695 -120.89769 37132 ft 445 kts 122°
2026-05-07 03:36 35.38114 -120.83566 37123 ft 445 kts 122°
2026-05-07 03:36 35.34530 -120.77439 37131 ft 445 kts 122°
2026-05-07 03:37 35.30922 -120.71281 37135 ft 444 kts 122°
2026-05-07 03:37 35.27326 -120.65124 37133 ft 444 kts 122°
2026-05-07 03:38 35.23709 -120.58934 37134 ft 451 kts 122°
2026-05-07 03:38 35.20033 -120.52672 37135 ft 452 kts 122°
2026-05-07 03:39 35.16365 -120.46425 37133 ft 452 kts 122°
2026-05-07 03:39 35.12696 -120.40199 37130 ft 452 kts 122°
2026-05-07 03:40 35.09038 -120.34008 37126 ft 452 kts 122°
2026-05-07 03:40 35.05355 -120.27789 37128 ft 451 kts 122°
2026-05-07 03:41 35.01683 -120.21570 37125 ft 451 kts 122°
2026-05-07 03:41 34.98010 -120.15370 37119 ft 451 kts 122°
2026-05-07 03:42 34.94328 -120.09177 37117 ft 451 kts 122°
2026-05-07 03:42 34.90649 -120.02995 37116 ft 451 kts 122°
2026-05-07 03:43 34.86960 -119.96813 37096 ft 450 kts 122°
2026-05-07 03:43 34.83270 -119.90649 37093 ft 450 kts 122°
2026-05-07 03:44 34.79585 -119.84480 37085 ft 450 kts 122°
2026-05-07 03:44 34.75923 -119.78355 37087 ft 451 kts 122°
2026-05-07 03:45 34.72230 -119.72204 37086 ft 450 kts 122°
2026-05-07 03:45 34.68527 -119.66052 37081 ft 450 kts 122°
2026-05-07 03:46 34.64829 -119.59900 37081 ft 450 kts 122°
2026-05-07 03:46 34.61140 -119.53798 37094 ft 450 kts 122°
2026-05-07 03:47 34.57431 -119.47675 37100 ft 450 kts 122°
2026-05-07 03:47 34.53721 -119.41534 37096 ft 450 kts 122°
2026-05-07 03:48 34.50027 -119.35424 37091 ft 449 kts 122°
2026-05-07 03:48 34.46314 -119.29315 37090 ft 450 kts 122°
2026-05-07 03:49 34.42592 -119.23215 37092 ft 449 kts 122°
2026-05-07 03:49 34.38881 -119.17129 37087 ft 449 kts 122°
2026-05-07 03:50 34.35186 -119.11076 37087 ft 449 kts 122°
2026-05-07 03:50 34.31469 -119.04992 37087 ft 449 kts 122°
2026-05-07 03:51 34.27748 -118.98910 37094 ft 449 kts 122°
2026-05-07 03:51 34.24029 -118.92853 37086 ft 449 kts 122°
2026-05-07 03:52 34.20290 -118.86784 37054 ft 449 kts 122°
2026-05-07 03:52 34.18444 -118.83788 36732 ft 447 kts 122°
2026-05-07 03:52 34.16595 -118.80789 36466 ft 444 kts 122°
2026-05-07 03:52 34.14757 -118.77806 36214 ft 443 kts 122°
2026-05-07 03:53 34.12917 -118.74823 35978 ft 443 kts 122°
2026-05-07 03:53 34.11076 -118.71839 35723 ft 442 kts 122°
2026-05-07 03:53 34.09242 -118.68870 35480 ft 441 kts 122°
2026-05-07 03:53 34.07408 -118.65907 35268 ft 439 kts 122°
2026-05-07 03:54 34.05579 -118.62955 35033 ft 438 kts 122°
2026-05-07 03:54 34.03757 -118.60017 34796 ft 436 kts 122°
2026-05-07 03:54 34.01946 -118.57099 34561 ft 434 kts 122°
2026-05-07 03:54 34.00142 -118.54195 34282 ft 430 kts 122°
2026-05-07 03:55 33.98355 -118.51316 33780 ft 428 kts 122°
2026-05-07 03:55 33.96598 -118.48487 33331 ft 425 kts 122°
2026-05-07 03:55 33.94831 -118.45650 32861 ft 422 kts 122°
2026-05-07 03:55 33.93035 -118.42863 32412 ft 421 kts 126°
2026-05-07 03:56 33.91053 -118.40272 31970 ft 419 kts 128°
2026-05-07 03:56 33.89076 -118.37713 31527 ft 416 kts 128°
2026-05-07 03:56 33.87109 -118.35170 31101 ft 414 kts 128°
2026-05-07 03:56 33.85154 -118.32642 30676 ft 411 kts 128°
2026-05-07 03:57 33.83211 -118.30128 30256 ft 408 kts 128°
2026-05-07 03:57 33.81280 -118.27630 29803 ft 406 kts 128°
2026-05-07 03:57 33.79365 -118.25157 29416 ft 401 kts 128°
2026-05-07 03:57 33.77464 -118.22708 29001 ft 398 kts 128°
2026-05-07 03:58 33.75617 -118.20311 28633 ft 394 kts 127°
2026-05-07 03:58 33.73777 -118.17893 28244 ft 391 kts 127°
2026-05-07 03:58 33.71954 -118.15484 27875 ft 387 kts 127°
2026-05-07 03:58 33.70249 -118.13233 27521 ft 384 kts 127°
2026-05-07 03:59 33.68452 -118.10868 27168 ft 381 kts 127°
2026-05-07 03:59 33.66669 -118.08528 26799 ft 378 kts 127°
2026-05-07 03:59 33.64898 -118.06205 26442 ft 375 kts 127°
2026-05-07 03:59 33.63146 -118.03909 26065 ft 372 kts 127°
2026-05-07 04:00 33.61401 -118.01624 25685 ft 369 kts 127°
2026-05-07 04:00 33.59674 -117.99363 25314 ft 366 kts 127°
2026-05-07 04:00 33.57957 -117.97115 24923 ft 364 kts 127°
2026-05-07 04:00 33.56251 -117.94883 24528 ft 362 kts 127°
2026-05-07 04:01 33.54545 -117.92673 24138 ft 361 kts 129°
2026-05-07 04:01 33.52805 -117.90558 23749 ft 360 kts 130°
2026-05-07 04:01 33.51006 -117.88474 23304 ft 359 kts 131°
2026-05-07 04:01 33.49203 -117.86431 22906 ft 356 kts 132°
2026-05-07 04:02 33.47402 -117.84396 22508 ft 352 kts 132°
2026-05-07 04:02 33.45634 -117.82387 22110 ft 349 kts 131°
2026-05-07 04:02 33.43884 -117.80386 21732 ft 347 kts 131°
2026-05-07 04:02 33.42118 -117.78425 21340 ft 345 kts 133°
2026-05-07 04:03 33.40332 -117.76509 20950 ft 343 kts 134°
2026-05-07 04:03 33.38548 -117.74620 20568 ft 341 kts 134°
2026-05-07 04:03 33.36796 -117.72772 20187 ft 339 kts 134°
2026-05-07 04:03 33.35026 -117.70906 19804 ft 338 kts 134°
2026-05-07 04:04 33.33271 -117.69049 19423 ft 336 kts 134°
2026-05-07 04:04 33.31527 -117.67194 19045 ft 335 kts 134°
2026-05-07 04:04 33.29789 -117.65343 18666 ft 333 kts 134°
2026-05-07 04:04 33.28062 -117.63504 18281 ft 332 kts 134°
2026-05-07 04:05 33.26341 -117.61670 17868 ft 330 kts 134°
2026-05-07 04:05 33.24612 -117.59831 17477 ft 334 kts 134°
2026-05-07 04:05 33.22873 -117.57989 17089 ft 333 kts 134°
2026-05-07 04:05 33.21142 -117.56163 16696 ft 331 kts 134°
2026-05-07 04:06 33.19417 -117.54348 16333 ft 329 kts 134°
2026-05-07 04:06 33.17722 -117.52567 15966 ft 327 kts 134°
2026-05-07 04:06 33.16020 -117.50781 15598 ft 325 kts 134°
2026-05-07 04:06 33.14328 -117.49007 15243 ft 322 kts 134°
2026-05-07 04:07 33.12538 -117.47366 14744 ft 327 kts 140°
2026-05-07 04:07 33.10662 -117.45799 14247 ft 328 kts 140°
2026-05-07 04:07 33.08790 -117.44242 13773 ft 328 kts 140°
2026-05-07 04:07 33.06921 -117.42691 13288 ft 327 kts 140°
2026-05-07 04:08 33.05057 -117.41145 12828 ft 325 kts 140°
2026-05-07 04:08 33.03209 -117.39606 12362 ft 323 kts 140°
2026-05-07 04:08 33.01391 -117.38084 11914 ft 321 kts 140°
2026-05-07 04:08 32.99565 -117.36551 11468 ft 320 kts 140°
2026-05-07 04:09 32.97746 -117.35026 11018 ft 319 kts 140°
2026-05-07 04:09 32.95932 -117.33506 10665 ft 315 kts 140°
2026-05-07 04:09 32.94177 -117.32038 10545 ft 303 kts 140°
2026-05-07 04:09 32.92477 -117.30618 10427 ft 293 kts 140°
2026-05-07 04:10 32.90838 -117.29249 10307 ft 283 kts 140°
2026-05-07 04:10 32.89242 -117.27915 10119 ft 278 kts 140°
2026-05-07 04:10 32.87666 -117.26601 9803 ft 277 kts 140°
2026-05-07 04:10 32.86088 -117.25290 9481 ft 276 kts 140°
2026-05-07 04:11 32.84518 -117.23988 9151 ft 274 kts 140°
2026-05-07 04:11 32.82976 -117.22700 8833 ft 273 kts 139°
2026-05-07 04:11 32.81651 -117.21125 8527 ft 266 kts 122°
2026-05-07 04:11 32.80778 -117.19223 8207 ft 261 kts 106°
2026-05-07 04:12 32.80294 -117.17161 7873 ft 259 kts 101°
2026-05-07 04:12 32.79839 -117.15087 7543 ft 259 kts 102°
2026-05-07 04:12 32.79374 -117.13016 7232 ft 259 kts 102°
2026-05-07 04:12 32.78905 -117.10941 6909 ft 259 kts 102°
2026-05-07 04:13 32.78433 -117.08848 6332 ft 266 kts 102°
2026-05-07 04:13 32.77960 -117.06747 6066 ft 258 kts 103°
2026-05-07 04:13 32.77488 -117.04720 5863 ft 252 kts 104°
2026-05-07 04:13 32.77005 -117.02732 5634 ft 248 kts 104°
2026-05-07 04:14 32.76527 -117.00785 5434 ft 243 kts 104°
2026-05-07 04:14 32.76064 -116.98902 5245 ft 237 kts 104°
2026-05-07 04:14 32.75378 -116.97144 4997 ft 236 kts 127°
2026-05-07 04:14 32.74125 -116.95906 4715 ft 236 kts 154°
2026-05-07 04:15 32.72546 -116.95438 4427 ft 234 kts 180°
2026-05-07 04:15 32.70981 -116.95818 4148 ft 229 kts 207°
2026-05-07 04:15 32.70088 -116.96499 3965 ft 225 kts 224°
2026-05-07 04:15 32.69177 -116.97940 3705 ft 220 kts 248°
2026-05-07 04:16 32.68833 -116.99689 3420 ft 217 kts 272°
2026-05-07 04:16 32.69084 -117.01422 3132 ft 212 kts 289°
2026-05-07 04:16 32.69496 -117.03087 2852 ft 207 kts 288°
2026-05-07 04:16 32.69892 -117.04707 2584 ft 200 kts 288°
2026-05-07 04:17 32.70278 -117.06285 2336 ft 197 kts 288°
2026-05-07 04:17 32.70651 -117.07809 2087 ft 189 kts 288°
2026-05-07 04:17 32.71011 -117.09288 1830 ft 184 kts 288°
2026-05-07 04:17 32.71354 -117.10707 1539 ft 175 kts 288°
2026-05-07 04:18 32.71680 -117.12057 1266 ft 165 kts 288°
2026-05-07 04:18 32.71981 -117.13306 1017 ft 148 kts 288°
2026-05-07 04:18 32.72250 -117.14418 786 ft 133 kts 288°
2026-05-07 04:18 32.72505 -117.15448 577 ft 128 kts 289°
2026-05-07 04:19 32.72745 -117.16442 383 ft 126 kts 288°
2026-05-07 04:19 32.72979 -117.17436 196 ft 125 kts 289°
2026-05-07 04:19 32.73220 -117.18417 39 ft 120 kts 289°
2026-05-07 04:19 32.73409 -117.19177 23 ft 59 kts 285°
2026-05-07 04:20 32.73450 -117.19452 24 ft 15 kts 243°
2026-05-07 04:20 32.73414 -117.19528 25 ft 8 kts 249°
2026-05-07 04:20 32.73405 -117.19588 23 ft 6 kts 272°
2026-05-07 04:21 32.73433 -117.19709 23 ft 9 kts 285°
2026-05-07 04:21 32.73451 -117.19786 24 ft 9 kts 287°
2026-05-07 04:21 32.73473 -117.19874 23 ft 13 kts 285°
2026-05-07 04:21 32.73501 -117.19987 24 ft 15 kts 287°
2026-05-07 04:22 32.73526 -117.20098 23 ft 11 kts 284°
2026-05-07 04:22 32.73545 -117.20190 23 ft 11 kts 270°
2026-05-07 04:22 32.73512 -117.20261 23 ft 9 kts 229°
2026-05-07 04:22 32.73473 -117.20317 23 ft 8 kts 232°
2026-05-07 04:23 32.73457 -117.20341 24 ft 1 kts 232°
2026-05-07 04:23 32.73454 -117.20346 23 ft 1 kts 232°
2026-05-07 04:23 32.73454 -117.20347 23 ft 0 kts 232°